Location: Songkhla
(7.2000°N, 100.6000°E)
Time: 20:19:39
(UTC+07:00)

ISS - Pass Details

Date: 25 April 2026
Orbit: 414 x 424 km, 51.6° (Epoch: 19 May)

Event Time Altitude Azimuth Distance (km) Brightness Sun altitude
Rises 10:05:55 0° 356° (N) 2,364 0.1 57.6°
Reaches altitude 10° 10:09:20 10° 32° (NNE) 1,502 -0.5 58.4°
Maximum altitude 10:10:25 11° 51° (NE) 1,432 -0.4 58.6°
Drops below altitude 10° 10:11:30 10° 70° (ENE) 1,504 -0.3 58.9°
Sets 10:14:54 0° 107° (ESE) 2,369 0.4 59.7°
